#timestamp,LO_Frequency,Hit 
1501815615.0,286047003.1,N
1501815615.9,286047003.1,N
1501815635.8,286047003.5,N
1501815655.6,286047004.1,N
1501815675.4,286047003.3,N
1501815695.3,286047005.4,N
1501815715.1,286047003.0,N
1501815716.0,286047003.0,N
1501815735.8,286047005.8,N
1501815755.7,286047003.3,N
1501815775.5,286047005.6,N
1501815795.3,286047005.5,N
1501815815.1,286047005.5,N
1501815835.9,286047003.8,N
1501815855.7,286047003.3,N
1501815875.5,286047003.4,N
1501815895.4,286047004.7,N
1501815915.2,286047003.9,N
1501815935.0,286047005.9,N
1501815935.9,286047005.9,N
1501815955.8,286047004.8,N
1501815975.6,286047006.0,N
1501815995.4,286047005.4,N
1501816015.3,286047005.4,N
1501816035.1,286047003.1,N
1501816036.0,286047003.1,N
1501816055.8,286047006.0,N
1501816075.7,286047004.7,N
1501816095.5,286047005.5,N
1501816115.3,286047002.9,N
1501816135.1,286047001.8,N
1501816155.9,286047004.4,N
1501816175.7,286047004.1,N
1501816195.5,286047002.9,N
1501816215.4,286047003.2,N
1501816235.2,286047003.4,N
1501816255.0,286047005.4,N
1501816255.9,286047005.4,N
1501816275.8,286047003.4,N
1501816295.6,286047005.5,N
1501816315.4,286047005.6,N
1501816335.3,286047006.0,N
1501816355.1,286047003.1,N
1501816356.0,286047003.1,N
1501816375.8,286047005.0,N
1501816395.6,286047004.7,N
1501816415.5,286047003.5,N
1501816435.3,286047005.2,N
1501816455.1,286047004.2,N
1501816475.9,286047002.9,N
1501816495.7,286047004.3,N
1501816515.5,286047005.8,N
1501816535.4,286047005.8,N
1501816555.2,286047005.8,N
1501816575.0,286047005.5,N
1501816575.9,286047005.5,N
1501816595.8,286047003.4,N
1501816615.6,286047003.2,N
1501816635.4,286047003.4,N
1501816655.3,286047006.0,N
1501816675.1,286047006.0,N
1501816676.0,286047006.0,N
1501816695.8,286047005.2,N
1501816715.6,286047007.2,N
1501816735.5,286047004.7,N
1501816755.3,286047003.2,N
1501816775.1,286047003.7,N
1501816795.9,286047004.1,N
1501816815.7,286047004.4,N
1501816835.5,286047004.2,N
1501816855.4,286047003.4,N
1501816875.2,286047001.7,N
1501816895.0,286047001.7,N
1501816895.9,286047001.7,N
1501816915.8,286047002.1,N
1501816935.6,286047001.7,N
1501816955.4,286047001.8,N
1501816975.3,286047004.1,N
1501816995.1,286047005.1,N
1501816996.0,286047005.1,N
1501817015.8,286047004.6,N
1501817035.6,286047005.5,N
1501817055.5,286047004.9,N
1501817075.3,286047005.3,N
1501817095.1,286047005.9,N
1501817115.9,286047004.6,N
1501817135.7,286047005.0,N
1501817155.5,286047006.7,N
1501817175.4,286047005.7,N
1501817195.2,286047004.9,N
1501817215.0,286047007.4,N
1501817215.9,286047007.4,N
1501817235.8,286047007.0,N
1501817255.6,286047005.7,N
1501817275.4,286047003.4,N
1501817295.3,286047003.1,N
1501817315.1,286047003.5,N
1501817316.0,286047003.5,N
1501817335.8,286047005.8,N
1501817355.7,286047005.0,N
1501817375.5,286047004.8,N
1501817395.3,286047006.4,N
1501817415.1,286047004.8,N
1501817435.9,286047006.9,N
1501817455.7,286047007.0,N
1501817475.5,286047006.3,N
1501817495.4,286047006.7,N
1501817515.2,286047005.0,N
1501817535.0,286047004.7,N
1501817535.9,286047004.7,N
1501817555.8,286047004.8,N
1501817575.6,286047005.9,N
1501817595.4,286047007.4,N
1501817615.3,286047004.9,N
1501817635.1,286047005.7,N
1501817636.0,286047005.7,N
1501817655.8,286047006.9,N
1501817675.7,286047006.8,N
1501817695.5,286047005.1,N
1501817715.3,286047005.1,N
1501817735.1,286047005.1,N
1501817755.9,286047009.1,N
1501817775.7,286047009.1,N
1501817795.5,286047007.6,N
1501817815.4,286047006.9,N
1501817835.2,286047006.8,N
1501817855.0,286047011.9,N
1501817855.9,286047011.9,N
1501817875.8,286047009.5,N
1501817895.6,286047010.7,N
1501817915.4,286047006.1,N
1501817935.3,286047006.5,N
1501817955.1,286047008.9,N
1501817956.0,286047008.9,N
1501817975.8,286047004.6,N
1501817995.7,286047006.3,N
1501818015.5,286047007.9,N
1501818035.3,286047008.6,N
1501818055.1,286047007.8,N
1501818075.9,286047006.5,N
1501818095.7,286047006.4,N
1501818115.5,286047008.7,N
1501818135.4,286047009.0,N
1501818155.2,286047008.6,N
1501818175.0,286047009.8,N
1501818175.9,286047009.8,N
1501818195.8,286047009.8,N
1501818215.6,286047008.2,N
1501818235.4,286047008.3,N
1501818255.3,286047006.3,N
1501818275.1,286047008.8,N
1501818276.0,286047008.8,N
1501818295.8,286047006.4,N
1501818315.7,286047010.8,N
1501818335.5,286047006.1,N
1501818355.3,286047007.9,N
1501818375.1,286047006.5,N
1501818395.9,286047007.4,N
1501818415.7,286047007.1,N
1501818435.5,286047010.4,N
1501818455.4,286047010.3,N
1501818475.2,286047010.6,N
1501818495.0,286047008.3,N
1501818495.9,286047008.3,N
1501818515.8,286047009.1,N
1501818535.6,286047009.2,N
1501818555.4,286047006.6,N
1501818575.3,286047006.8,N
1501818595.1,286047007.4,N
1501818596.0,286047007.4,N
1501818615.8,286047005.6,N
1501818635.7,286047005.4,N
1501818655.5,286047005.1,N
1501818675.3,286047007.3,N
1501818695.1,286047007.3,N
1501818715.9,286047007.9,N
1501818735.7,286047008.1,N
1501818755.5,286047008.0,N
1501818775.4,286047006.1,N
1501818795.2,286047008.3,N
1501818815.0,286047008.4,N
1501818815.9,286047008.4,N
1501818835.8,286047006.2,N
1501818855.6,286047008.6,N
1501818875.4,286047008.0,N
1501818895.3,286047006.2,N
1501818915.1,286047008.0,N
1501818916.0,286047008.0,N
1501818935.8,286047007.9,N
1501818955.7,286047010.8,N
1501818975.5,286047008.4,N
1501818995.3,286047008.3,N
1501819015.1,286047012.3,N
1501819035.9,286047012.4,N
1501819055.7,286047007.7,N
1501819075.5,286047007.9,N
1501819095.4,286047007.8,N
1501819115.2,286047008.5,N
1501819135.0,286047010.1,N
1501819135.9,286047010.1,N
1501819155.8,286047010.5,N
1501819175.6,286047008.2,N
1501819195.4,286047008.9,N
